Weather History for Greeley, CO

Change the Weather History Date:

Sunday, March 10, 2013

  Actual Average Record
Temperature  
Mean Temperature 36 °F -  
Max Temperature 48 °F 50 °F 79 °F (1972)
Min Temperature 24 °F 20 °F 4 °F (1969)
Degree Days  
Heating Degree Days 29    
Moisture  
Dew Point 19 °F    
Average Humidity 56    
Maximum Humidity 80    
Minimum Humidity 29    
Precipitation  
Precipitation 0.00 in - - ()
Sea Level Pressure  
Sea Level Pressure 30.07 in    
Wind  
Wind Speed 13 mph (NNW)    
Max Wind Speed 31 mph    
Max Gust Speed 43 mph    
Visibility 10 miles    
Events      
Averages and records for this station are not official NWS values.
T = Trace of Precipitation, MM = Missing Value Source: NWS Daily Summary

Daily Weather History Graph

Daily Weather History Graph

Search for Another Location

Airport:

Trip Planner

Search our weather history database for the weather conditions in past years. The results will help you decide how hot, cold, wet, or windy it might be!

Date:

Astronomy

Mar. 10, 2013 Rise Set
Actual Time 7:17 AM MDT 7:00 PM MDT
Civil Twilight 6:50 AM MDT 7:27 PM MDT
Nautical Twilight 6:18 AM MDT 7:59 PM MDT
Astronomical Twilight 5:47 AM MDT 8:30 PM MDT
Moon 6:19 AM MDT (3/10) 6:10 PM MDT (3/10)
Length of Visible Light 12h 36m
Length of Day
11h 42m
Waning Crescent, 1% of the Moon is Illuminated
Mar 10
Waning Crescent
Mar 11
New
Mar 19
First Quarter
Mar 27
Full
Apr 2
Last Quarter

Hourly Weather History & Observations

Time (MDT) Temp. Windchill Dew Point Humidity Pressure Visibility Wind Dir Wind Speed Gust Speed Precip Events Conditions
12:15 AM 26.6 °F 17.5 °F 15.8 °F 64% 30.06 in 10.0 mi NW 9.2 mph - N/A   Scattered Clouds
12:35 AM 30.2 °F 18.5 °F 17.6 °F 60% 30.07 in 10.0 mi NNW 17.3 mph - N/A   Mostly Cloudy
12:55 AM 30.2 °F 20.8 °F 17.6 °F 60% 30.09 in 10.0 mi NNE 11.5 mph - N/A   Overcast
1:15 AM 28.4 °F 16.2 °F 19.4 °F 69% 30.09 in 8.0 mi NNW 17.3 mph 27.6 mph N/A   Mostly Cloudy
1:35 AM 26.6 °F 15.7 °F 19.4 °F 74% 30.10 in 10.0 mi North 12.7 mph - N/A   Partly Cloudy
1:55 AM 26.6 °F 17.5 °F 19.4 °F 74% 30.10 in 10.0 mi NNW 9.2 mph - N/A   Clear
3:15 AM 24.8 °F 15.3 °F 17.6 °F 74% 30.10 in 10.0 mi NNW 9.2 mph - N/A   Clear
3:35 AM 26.6 °F 16.8 °F 17.6 °F 69% 30.09 in 10.0 mi North 10.4 mph - N/A   Mostly Cloudy
3:55 AM 26.6 °F 16.2 °F 17.6 °F 69% 30.10 in 10.0 mi North 11.5 mph - N/A   Mostly Cloudy
4:15 AM 28.4 °F 17.0 °F 19.4 °F 69% 30.09 in 10.0 mi North 15.0 mph - N/A   Overcast
4:35 AM 28.4 °F 17.0 °F 19.4 °F 69% 30.10 in 10.0 mi North 15.0 mph - N/A   Overcast
4:55 AM 28.4 °F 18.0 °F 17.6 °F 64% 30.10 in 10.0 mi North 12.7 mph - N/A   Overcast
5:15 AM 28.4 °F 18.0 °F 17.6 °F 64% 30.11 in 10.0 mi North 12.7 mph - N/A   Mostly Cloudy
6:15 AM 26.6 °F 14.7 °F 15.8 °F 64% 30.11 in 10.0 mi North 15.0 mph - N/A   Clear
6:35 AM 26.6 °F 14.3 °F 15.8 °F 64% 30.11 in 10.0 mi North 16.1 mph - N/A   Clear
6:55 AM 26.6 °F 15.2 °F 15.8 °F 64% 30.11 in 10.0 mi North 13.8 mph - N/A   Clear
7:15 AM 26.6 °F 15.2 °F 15.8 °F 64% 30.11 in 10.0 mi North 13.8 mph - N/A   Clear
7:35 AM 24.8 °F 13.4 °F 15.8 °F 69% 30.11 in 10.0 mi North 12.7 mph - N/A   Clear
8:15 AM 24.8 °F 15.3 °F 15.8 °F 69% 30.11 in 10.0 mi North 9.2 mph - N/A   Clear
8:35 AM 26.6 °F 18.2 °F 17.6 °F 69% 30.12 in 10.0 mi North 8.1 mph - N/A   Clear
8:55 AM 28.4 °F 20.4 °F 17.6 °F 64% 30.13 in 10.0 mi North 8.1 mph - N/A   Clear
9:15 AM 30.2 °F 22.6 °F 17.6 °F 60% 30.12 in 10.0 mi NNW 8.1 mph - N/A   Clear
9:35 AM 32.0 °F 26.4 °F 17.6 °F 55% 30.12 in 10.0 mi NNW 5.8 mph - N/A   Clear
9:55 AM 37.4 °F 25.6 °F 17.6 °F 45% 30.11 in 10.0 mi NNW 26.5 mph 35.7 mph N/A   Clear
10:15 AM 37.4 °F 24.8 °F 17.6 °F 45% 30.12 in 10.0 mi North 31.1 mph 36.8 mph N/A   Clear
10:35 AM 39.2 °F 27.8 °F 15.8 °F 39% 30.10 in 10.0 mi North 27.6 mph 38.0 mph N/A   Clear
10:55 AM 39.2 °F 28.0 °F 15.8 °F 39% 30.10 in 10.0 mi North 26.5 mph 39.1 mph N/A   Clear
11:15 AM 41.0 °F 29.8 °F 15.8 °F 36% 30.10 in 10.0 mi North 29.9 mph 36.8 mph N/A   Clear
11:35 AM 42.8 °F 32.7 °F 15.8 °F 34% 30.09 in 10.0 mi NNW 27.6 mph 40.3 mph N/A   Clear
11:55 AM 42.8 °F 32.1 °F 15.8 °F 34% 30.08 in 10.0 mi North 31.1 mph 41.4 mph N/A   Clear
12:35 PM 44.6 °F 35.1 °F 15.8 °F 31% 30.07 in 10.0 mi North 27.6 mph 36.8 mph N/A   Clear
12:55 PM 44.6 °F 34.6 °F 15.8 °F 31% 30.06 in 10.0 mi North 31.1 mph 42.6 mph N/A   Clear
1:15 PM 46.4 °F 37.2 °F 15.8 °F 29% 30.06 in 10.0 mi North 29.9 mph 38.0 mph N/A   Clear
1:35 PM 46.4 °F 37.4 °F 17.6 °F 32% 30.06 in 10.0 mi NNW 28.8 mph 36.8 mph N/A   Clear
1:55 PM 46.4 °F 37.5 °F 19.4 °F 34% 30.05 in 10.0 mi NNW 27.6 mph 36.8 mph N/A   Partly Cloudy
2:15 PM 46.4 °F 37.9 °F 19.4 °F 34% 30.05 in 10.0 mi NNW 25.3 mph 38.0 mph N/A   Partly Cloudy
2:35 PM 48.2 °F - 19.4 °F 32% 30.05 in 10.0 mi NNW 24.2 mph 34.5 mph N/A   Scattered Clouds
2:55 PM 48.2 °F - 17.6 °F 30% 30.04 in 10.0 mi North 20.7 mph 34.5 mph N/A   Partly Cloudy
3:15 PM 48.2 °F - 17.6 °F 30% 30.04 in 10.0 mi NNW 25.3 mph 36.8 mph N/A   Partly Cloudy
3:35 PM 48.2 °F - 19.4 °F 32% 30.04 in 10.0 mi NNW 19.6 mph 29.9 mph N/A   Partly Cloudy
3:55 PM 46.4 °F 39.2 °F 17.6 °F 32% 30.04 in 10.0 mi NNW 18.4 mph 24.2 mph N/A   Scattered Clouds
4:15 PM 44.6 °F 36.6 °F 17.6 °F 34% 30.04 in 10.0 mi NW 19.6 mph - N/A   Mostly Cloudy
4:35 PM 44.6 °F 38.1 °F 19.4 °F 37% 30.04 in 10.0 mi WNW 13.8 mph - N/A   Mostly Cloudy
4:55 PM 44.6 °F 40.2 °F 19.4 °F 37% 30.04 in 10.0 mi NW 8.1 mph - N/A   Partly Cloudy
5:15 PM 46.4 °F 41.9 °F 19.4 °F 34% 30.04 in 10.0 mi NE 9.2 mph - N/A   Clear
5:35 PM 44.6 °F 41.4 °F 19.4 °F 37% 30.04 in 10.0 mi NNE 5.8 mph - N/A   Scattered Clouds
5:55 PM 41.0 °F 34.3 °F 21.2 °F 45% 30.05 in 10.0 mi South 11.5 mph - N/A   Mostly Cloudy
6:15 PM 35.6 °F 30.7 °F 23.0 °F 60% 30.06 in 10.0 mi South 5.8 mph - N/A   Mostly Cloudy
6:35 PM 35.6 °F 28.6 °F 24.8 °F 65% 30.06 in 10.0 mi South 9.2 mph - N/A   Mostly Cloudy
6:55 PM 33.8 °F 28.6 °F 23.0 °F 65% 30.06 in 10.0 mi South 5.8 mph - N/A   Clear
7:15 PM 33.8 °F 27.0 °F 23.0 °F 65% 30.06 in 10.0 mi SSW 8.1 mph - N/A   Clear
7:35 PM 33.8 °F 29.6 °F 21.2 °F 60% 30.06 in 10.0 mi South 4.6 mph - N/A   Clear
8:15 PM 30.2 °F - 21.2 °F 69% 30.05 in 10.0 mi Calm Calm - N/A   Clear
8:35 PM 32.0 °F 28.7 °F 21.2 °F 64% 30.05 in 10.0 mi SSW 3.5 mph - N/A   Clear
8:55 PM 28.4 °F - 19.4 °F 69% 30.04 in 10.0 mi Calm Calm - N/A   Clear
9:15 PM 33.8 °F - 23.0 °F 65% 30.04 in 10.0 mi Calm Calm - N/A   Clear
9:35 PM 30.2 °F 24.3 °F 21.2 °F 69% 30.04 in 10.0 mi SW 5.8 mph - N/A   Clear
9:55 PM 30.2 °F 25.4 °F 21.2 °F 69% 30.04 in 10.0 mi NW 4.6 mph - N/A   Clear
10:15 PM 28.4 °F 24.6 °F 19.4 °F 69% 30.03 in 10.0 mi North 3.5 mph - N/A   Clear
10:35 PM 28.4 °F - 21.2 °F 74% 30.03 in 10.0 mi Calm Calm - N/A   Clear
11:15 PM 26.6 °F - 19.4 °F 74% 30.02 in 10.0 mi Calm Calm - N/A   Clear
11:35 PM 24.8 °F - 19.4 °F 80% 30.01 in 10.0 mi Calm Calm - N/A   Clear
11:55 PM 24.8 °F - 19.4 °F 80% 30.01 in 10.0 mi Calm Calm - N/A   Clear
12:15 AM 24.8 °F - 19.4 °F 80% 30.00 in 10.0 mi Calm Calm - N/A   Clear
12:35 AM 24.8 °F - 17.6 °F 74% 30.00 in 10.0 mi Calm Calm - N/A   Clear
12:55 AM 24.8 °F - 19.4 °F 80% 29.99 in 10.0 mi Calm Calm - N/A   Clear